星链-38080(STARLINK-38080)

导读

STARLINK-38080(NORAD 69989)是SpaceX星链低轨通信星座的组成卫星。该卫星隶属于星链组网批次,主要承担全球低时延宽带通信服务任务,面向偏远地区、航空航海等场景提供网络接入支持。目前公开可查的轨道监测数据显示,2026年该卫星处于正常在轨运行状态,与星链现役超1万颗卫星共同维持星座服务,星链整体在轨健康率超99.9%,无公开记录显示该卫星出现异常或已离轨。作为星链规模化组网的节点之一,其服役为星座全球覆盖能力提供支撑。

基本信息
目录编号:
69989
目录名称:
STARLINK-38080
国际标识:
2026-159Q
轨道中心:
EARTH
卫星名称:
星链-38080
卫星全名:
星链-38080(STARLINK-38080)
卫星状态:
在轨 (已飞行56 天)
发射日期:
2026-07-11 UTC
国别 :
美国 (US)
星等 :
--
轨道信息
数据来源 国际轨道数据
星历时间: 2026-09-05T02:59:07+0800
11小时前
查看轨道信息
半长轴: 6722.208km
偏心率: 0.0001572
轨道倾角: 97.285°
近地点辐角 94.237°
升交点赤经 89.132°
平近点角 265.908°
近地点: 343.014km
远地点: 345.128km
周期: 91.417分钟
每日圈数: 15.751971
详细信息
固有亮度:
5
最大亮度:
2.5
卫星平台:
Starlink V1.0
覆盖范围:
全球
运营商:
太空探索技术公司
运营商所在国:
美国
制造商(研发单位):
太空探索技术公司
制造商所在国:
美国
使用方式:
暂无
卫星简介
Starlink 计划是 SpaceX 推出的全球卫星互联网项目,通过发射低轨道卫星,为全球尤其是偏远地区提供高速、低延迟的互联网服务。自 2019 年起,Starlink 已部署数千颗卫星,旨在缩小全球数字鸿沟,推动互联网普及。该项目还为军事、航空等行业提供通信支持,带来广泛经济效益。
2D轨道图
3D轨道图
轨道高度分析图
轨道倾角分析图
轨道综合分析图
查看轨道综合分析图